,,Stat6,,Stat2,,Stat8,,Stat9,,Stat10,,Wind1,,Wind1,
time,status,PA1M_AVG,status,PR1M_SUM,status,RH1M_AVG,status,SR1M_AVG,status,TA1M_AVG,status,W1dAve1m,status,W1sAve1m,
2006-10-27, 16:52:00,VALID,919.756,VALID,0,VALID,78.2126,VALID,605.265,VALID,25.0914,VALID,146,VALID,0.825267,
2006-10-27, 16:53:00,VALID,919.764,VALID,0,VALID,77.5564,VALID,795.059,VALID,25.0329,VALID,130,VALID,1.21484,
2006-10-27, 16:54:00,VALID,919.756,VALID,0,VALID,78.4224,VALID,782.341,VALID,25.0455,VALID,121,VALID,0.793269,
2006-10-27, 16:55:00,VALID,919.758,VALID,0,VALID,77.8591,VALID,781.492,VALID,25.0937,VALID,165,VALID,0.662534,
2006-10-27, 16:56:00,VALID,919.767,VALID,0,VALID,79.1396,VALID,605.893,VALID,25.368,VALID,207,VALID,0.764291,
2006-10-27, 16:57:01,VALID,919.768,VALID,0,VALID,76.2759,VALID,551.775,VALID,25.4776,VALID,201,VALID,0.705842,
2006-10-27, 16:58:01,VALID,919.761,VALID,0,VALID,76.7897,VALID,561.76,VALID,25.4915,VALID,126,VALID,0.454723,
2006-10-27, 16:59:00,VALID,919.769,VALID,0,VALID,76.5722,VALID,502.904,VALID,25.4618,VALID,143,VALID,1.18524,
2006-10-27, 17:00:01,VALID,919.751,VALID,0,VALID,77.2843,VALID,431.126,VALID,25.2937,VALID,119,VALID,0.663881,
2006-10-27, 17:01:00,VALID,919.741,VALID,0,VALID,76.9728,VALID,395.212,VALID,25.2511,VALID,107,VALID,0.884301,
2006-10-27, 17:02:00,VALID,919.743,VALID,0,VALID,77.6124,VALID,386.059,VALID,25.1183,VALID,177,VALID,0.845703,
2006-10-27, 17:03:00,VALID,919.721,VALID,0,VALID,77.3288,VALID,389.693,VALID,24.8727,VALID,195,VALID,0.591388,
2006-10-27, 17:04:00,VALID,919.71,VALID,0,VALID,79.4842,VALID,392.902,VALID,24.937,VALID,201,VALID,0.378811,
2006-10-27, 17:05:00,VALID,919.701,VALID,0,VALID,78.2825,VALID,402.836,VALID,25.0789,VALID,188,VALID,0.600852,
2006-10-27, 17:06:00,VALID,919.676,VALID,0,VALID,77.3937,VALID,411.836,VALID,25.0895,VALID,118,VALID,0.632617,
2006-10-27, 17:07:01,VALID,919.678,VALID,0,VALID,78.0689,VALID,434.913,VALID,25.1855,VALID,304,VALID,0.555246,
2006-10-27, 17:08:01,VALID,919.665,VALID,0,VALID,78.8382,VALID,404.772,VALID,25.2983,VALID,181,VALID,0.533854,
2006-10-27, 17:09:01,VALID,919.682,VALID,0,VALID,79.4689,VALID,356.988,VALID,25.37,VALID,227,VALID,0.511009,
2006-10-27, 17:10:00,VALID,919.673,VALID,0,VALID,78.7594,VALID,308.796,VALID,25.4666,VALID,207,VALID,0.343217,
2006-10-27, 17:11:00,VALID,919.666,VALID,0,VALID,77.7688,VALID,296.621,VALID,25.5015,VALID,121,VALID,0.20191,
2006-10-27, 17:12:00,VALID,919.66,VALID,0,VALID,76.7719,VALID,313.585,VALID,25.5729,VALID,70,VALID,0.544643,
2006-10-27, 17:13:01,VALID,919.658,VALID,0,VALID,77.1292,VALID,325.421,VALID,25.5965,VALID,45,VALID,0.56441,
2006-10-27, 17:14:00,VALID,919.667,VALID,0,VALID,77.8019,VALID,324.809,VALID,25.7093,VALID,273,VALID,0.491629,
2006-10-27, 17:15:01,VALID,919.653,VALID,0,VALID,77.0974,VALID,314.943,VALID,25.8188,VALID,292,VALID,0.139898,
2006-10-27, 17:16:00,VALID,919.658,VALID,0,VALID,76.2174,VALID,312.04,VALID,25.9097,VALID,25,VALID,0.328303,
2006-10-27, 17:17:01,VALID,919.659,VALID,0,VALID,75.9415,VALID,315.826,VALID,25.8738,VALID,70,VALID,0.278646,
2006-10-27, 17:18:00,VALID,919.672,VALID,0,VALID,76.5582,VALID,324.181,VALID,25.9287,VALID,39,VALID,0.220238,
2006-10-27, 17:19:07,VALID,919.685,VALID,0,VALID,76.3433,VALID,326.372,VALID,25.9517,VALID,239,VALID,0.853819,
2006-10-27, 17:20:00,VALID,919.688,VALID,0,VALID,74.1714,VALID,330.022,VALID,25.7393,VALID,150,VALID,0.824855,
2006-10-27, 17:21:01,VALID,919.679,VALID,0,VALID,75.5727,VALID,339.871,VALID,25.5665,VALID,234,VALID,0.521701,
2006-10-27, 17:22:00,VALID,919.674,VALID,0,VALID,77.7472,VALID,365.597,VALID,25.602,VALID,288,VALID,0.476563,
2006-10-27, 17:23:01,VALID,919.669,VALID,0,VALID,78.2139,VALID,431.483,VALID,25.7516,VALID,189,VALID,0.23971,
2006-10-27, 17:24:00,VALID,919.667,VALID,0,VALID,76.5023,VALID,408.78,VALID,25.9872,VALID,148,VALID,0.389898,
2006-10-27, 17:25:01,VALID,919.67,VALID,0,VALID,75.2052,VALID,384.955,VALID,26.2002,VALID,125,VALID,0.299352,
2006-10-27, 17:26:01,VALID,919.679,VALID,0,VALID,74.6508,VALID,416.013,VALID,26.2364,VALID,142,VALID,0.574898,
2006-10-27, 17:27:01,VALID,919.686,VALID,0,VALID,74.5567,VALID,463.899,VALID,26.0845,VALID,146,VALID,0.738459,
2006-10-27, 17:28:01,VALID,919.687,VALID,0,VALID,74.8098,VALID,456.428,VALID,25.8802,VALID,143,VALID,1.12726,
2006-10-27, 17:29:01,VALID,919.668,VALID,0,VALID,74.3126,VALID,431.092,VALID,25.6146,VALID,141,VALID,1.11493,
2006-10-27, 17:30:00,VALID,919.656,VALID,0,VALID,74.6737,VALID,428.885,VALID,25.5959,VALID,105,VALID,0.883743,
2006-10-27, 17:31:00,VALID,919.642,VALID,0,VALID,75.9046,VALID,458.652,VALID,25.8382,VALID,147,VALID,0.824929,
2006-10-27, 17:32:00,VALID,919.651,VALID,0,VALID,75.5193,VALID,499.304,VALID,25.9484,VALID,147,VALID,1.03551,
2006-10-27, 17:33:01,VALID,919.627,VALID,0,VALID,76.0839,VALID,636.221,VALID,25.802,VALID,169,VALID,1.10882,
2006-10-27, 17:34:01,VALID,919.631,VALID,0,VALID,76.3471,VALID,772.611,VALID,25.7962,VALID,128,VALID,1.28865,
2006-10-27, 17:35:01,VALID,919.623,VALID,0,VALID,76.8469,VALID,793.548,VALID,26.0066,VALID,132,VALID,1.07795,
2006-10-27, 17:36:01,VALID,919.63,VALID,0,VALID,75.2853,VALID,877.383,VALID,26.0638,VALID,112,VALID,1.03281,
2006-10-27, 17:37:01,VALID,919.624,VALID,0,VALID,76.2162,VALID,721.957,VALID,26.1701,VALID,139,VALID,0.843178,
2006-10-27, 17:38:01,VALID,919.636,VALID,0,VALID,76.4145,VALID,496.112,VALID,26.2939,VALID,199,VALID,0.64577,
2006-10-27, 17:39:01,VALID,919.653,VALID,0,VALID,74.2401,VALID,420.904,VALID,26.3606,VALID,148,VALID,0.711119,
2006-10-27, 17:40:01,VALID,919.67,VALID,0,VALID,73.4657,VALID,411.904,VALID,26.2946,VALID,172,VALID,0.644985,
2006-10-27, 17:41:01,VALID,919.665,VALID,0,VALID,74.057,VALID,465.784,VALID,26.185,VALID,176,VALID,0.303961,
2006-10-27, 17:42:01,VALID,919.664,VALID,0,VALID,74.6089,VALID,426.372,VALID,26.3114,VALID,182,VALID,0.486806,
2006-10-27, 17:43:01,VALID,919.659,VALID,0,VALID,74.469,VALID,417.44,VALID,26.3398,VALID,105,VALID,0.477706,
2006-10-27, 17:44:01,VALID,919.634,VALID,0,VALID,73.692,VALID,425.574,VALID,26.3857,VALID,111,VALID,1.17188,
2006-10-27, 17:45:01,VALID,919.625,VALID,0,VALID,75.3477,VALID,421.94,VALID,26.0881,VALID,116,VALID,1.01367,
2006-10-27, 17:46:01,VALID,919.614,VALID,0,VALID,76.4387,VALID,420.462,VALID,26.0205,VALID,117,VALID,1.31076,
2006-10-27, 17:47:01,VALID,919.596,VALID,0,VALID,76.6854,VALID,482.357,VALID,26.0134,VALID,123,VALID,1.08967,
2006-10-27, 17:48:00,VALID,919.573,VALID,0,VALID,77.0554,VALID,399.848,VALID,25.9701,VALID,127,VALID,0.723011,
2006-10-27, 17:49:01,VALID,919.557,VALID,0,VALID,77.1521,VALID,373.001,VALID,25.8983,VALID,111,VALID,1.21484,
2006-10-27, 17:50:01,VALID,919.553,VALID,0,VALID,76.6511,VALID,341.807,VALID,25.6918,VALID,126,VALID,0.748183,
2006-10-27, 17:51:01,VALID,919.539,VALID,0,VALID,79.385,VALID,314.672,VALID,25.6818,VALID,141,VALID,0.455487,
2006-10-27, 17:52:01,VALID,919.553,VALID,0,VALID,79.722,VALID,293.191,VALID,25.7759,VALID,217,VALID,0.350347,
2006-10-27, 17:53:01,VALID,919.537,VALID,0,VALID,78.3652,VALID,283.835,VALID,25.856,VALID,252,VALID,0.322798,
2006-10-27, 17:54:01,VALID,919.549,VALID,0,VALID,78.2304,VALID,278.265,VALID,25.8928,VALID,141,VALID,0.574591,
2006-10-27, 17:55:01,VALID,919.559,VALID,0,VALID,78.4911,VALID,296.57,VALID,25.9077,VALID,135,VALID,0.26669,
2006-10-27, 17:56:01,VALID,919.562,VALID,0,VALID,78.0358,VALID,333.877,VALID,26.0211,VALID,240,VALID,0.298781,
2006-10-27, 17:57:01,VALID,919.567,VALID,0,VALID,75.911,VALID,359.229,VALID,26.0896,VALID,193,VALID,0.586124,
2006-10-27, 17:58:01,VALID,919.553,VALID,0,VALID,77.194,VALID,381.508,VALID,25.9985,VALID,246,VALID,0.881288,
2006-10-27, 17:59:01,VALID,919.543,VALID,0,VALID,77.4369,VALID,404.042,VALID,26.1249,VALID,272,VALID,1.65234,
2006-10-27, 18:00:01,VALID,919.529,VALID,0,VALID,76.1933,VALID,409.764,VALID,26.131,VALID,280,VALID,1.06002,
2006-10-27, 18:01:01,VALID,919.522,VALID,0,VALID,74.867,VALID,427.696,VALID,26.0541,VALID,180,VALID,0.845982,
2006-10-27, 18:02:01,VALID,919.497,VALID,0,VALID,75.4252,VALID,505.299,VALID,25.9633,VALID,69,VALID,0.454985,
2006-10-27, 18:03:01,VALID,919.463,VALID,0,VALID,77.7612,VALID,939.38,VALID,26.0732,VALID,163,VALID,0.400073,
2006-10-27, 18:04:01,VALID,919.448,VALID,0,VALID,76.5074,VALID,896.893,VALID,26.3285,VALID,152,VALID,0.27907,
2006-10-27, 18:05:01,VALID,919.416,VALID,0,VALID,73.6437,VALID,957.362,VALID,26.5899,VALID,178,VALID,0.757994,
2006-10-27, 18:06:01,VALID,919.379,VALID,0,VALID,71.3586,VALID,971.813,VALID,26.5609,VALID,152,VALID,0.879092,
2006-10-27, 18:07:01,VALID,919.34,VALID,0,VALID,72.8579,VALID,973.969,VALID,26.7749,VALID,105,VALID,0.340216,
2006-10-27, 18:08:01,VALID,919.329,VALID,0,VALID,72.545,VALID,841.74,VALID,27.0296,VALID,197,VALID,1.12363,
2006-10-27, 18:09:01,VALID,919.311,VALID,0,VALID,72.0631,VALID,1000.34,VALID,27.2038,VALID,227,VALID,1.05469,
2006-10-27, 18:10:01,VALID,919.296,VALID,0,VALID,71.4833,VALID,993.073,VALID,27.346,VALID,259,VALID,1.86426,
2006-10-27, 18:11:01,VALID,919.263,VALID,0,VALID,72.5425,VALID,995.671,VALID,27.4074,VALID,273,VALID,2.82254,
2006-10-27, 18:12:01,VALID,919.286,VALID,0,VALID,72.9837,VALID,945.527,VALID,27.4976,VALID,266,VALID,2.00729,
2006-10-27, 18:13:01,VALID,919.291,VALID,0,VALID,71.7935,VALID,790.933,VALID,27.6596,VALID,256,VALID,0.50465,
2006-10-27, 18:14:00,VALID,919.295,VALID,0,VALID,70.3706,VALID,699.322,VALID,27.9729,VALID,334,VALID,0.46689,
2006-10-27, 18:15:00,VALID,919.29,VALID,0,VALID,68.4263,VALID,849.194,VALID,28.025,VALID,78,VALID,0.567535,
2006-10-27, 18:16:00,VALID,919.264,VALID,0,VALID,69.628,VALID,951.691,VALID,28.0239,VALID,114,VALID,0.694293,
2006-10-27, 18:17:00,VALID,919.256,VALID,0,VALID,70.2727,VALID,495.365,VALID,27.9241,VALID,93,VALID,0.195494,
2006-10-27, 18:18:00,VALID,919.237,VALID,0,VALID,70.2625,VALID,519.427,VALID,28.0437,VALID,316,VALID,0.73097,
2006-10-27, 18:19:00,VALID,919.199,VALID,0,VALID,69.5351,VALID,886.892,VALID,27.9945,VALID,249,VALID,1.02915,
2006-10-27, 18:20:00,VALID,919.172,VALID,0,VALID,72.1,VALID,972.339,VALID,28.0556,VALID,278,VALID,1.19497,
2006-10-27, 18:21:00,VALID,919.162,VALID,0,VALID,72.1572,VALID,977.434,VALID,28.4702,VALID,278,VALID,1.06955,
2006-10-27, 18:22:00,VALID,919.167,VALID,0,VALID,69.4016,VALID,700.272,VALID,28.6024,VALID,251,VALID,1.00248,
2006-10-27, 18:23:00,VALID,919.177,VALID,0,VALID,68.982,VALID,445.475,VALID,28.4454,VALID,262,VALID,1.55632,
2006-10-27, 18:24:00,VALID,919.182,VALID,0,VALID,70.2027,VALID,372.525,VALID,28.1396,VALID,198,VALID,1.16921,
2006-10-27, 18:25:00,VALID,919.177,VALID,0,VALID,70.9988,VALID,427.985,VALID,28.0002,VALID,266,VALID,1.1492,
2006-10-27, 18:26:00,VALID,919.153,VALID,0,VALID,69.6674,VALID,381.491,VALID,27.9259,VALID,282,VALID,1.55137,
2006-10-27, 18:27:00,VALID,919.142,VALID,0,VALID,70.5206,VALID,386.569,VALID,27.7025,VALID,275,VALID,1.17787,
2006-10-27, 18:28:00,VALID,919.119,VALID,0,VALID,71.4565,VALID,524.198,VALID,27.5612,VALID,231,VALID,0.710938,
2006-10-27, 18:29:00,VALID,919.097,VALID,0,VALID,71.4044,VALID,819.138,VALID,27.5207,VALID,226,VALID,0.846236,
2006-10-27, 18:30:00,VALID,919.068,VALID,0,VALID,72.0491,VALID,925.914,VALID,27.6439,VALID,156,VALID,0.235283,
2006-10-27, 18:31:00,VALID,919.057,VALID,0,VALID,71.2493,VALID,880.779,VALID,27.8867,VALID,101,VALID,0.499628,
2006-10-27, 18:32:00,VALID,919.059,VALID,0,VALID,68.9655,VALID,595.908,VALID,27.7966,VALID,138,VALID,0.613095,
2006-10-27, 18:33:00,VALID,919.027,VALID,0,VALID,70.2231,VALID,393.955,VALID,27.7197,VALID,136,VALID,0.314583,
2006-10-27, 18:34:00,VALID,919.01,VALID,0,VALID,70.8207,VALID,335.711,VALID,27.7627,VALID,250,VALID,0.796693,
2006-10-27, 18:35:00,VALID,918.989,VALID,0,VALID,70.3452,VALID,301.087,VALID,27.8109,VALID,258,VALID,0.704215,
2006-10-27, 18:36:00,VALID,918.995,VALID,0,VALID,69.4665,VALID,312.176,VALID,27.6909,VALID,180,VALID,0.629439,
2006-10-27, 18:37:00,VALID,918.987,VALID,0,VALID,68.4136,VALID,429.717,VALID,27.1834,VALID,243,VALID,1.14676,
2006-10-27, 18:38:00,VALID,918.989,VALID,0,VALID,70.808,VALID,918.799,VALID,26.8856,VALID,200,VALID,0.66806,
2006-10-27, 18:39:00,VALID,918.977,VALID,0,VALID,72.2831,VALID,932.4,VALID,26.8963,VALID,165,VALID,0.705124,
2006-10-27, 18:40:00,VALID,918.979,VALID,0,VALID,74.5707,VALID,810.054,VALID,27.0188,VALID,217,VALID,0.824479,
2006-10-27, 18:41:00,VALID,918.979,VALID,0,VALID,73.3614,VALID,963.187,VALID,27.2717,VALID,232,VALID,0.586483,
2006-10-27, 18:42:00,VALID,918.966,VALID,0,VALID,72.7078,VALID,983.903,VALID,27.7136,VALID,316,VALID,0.574041,
2006-10-27, 18:43:00,VALID,918.919,VALID,0,VALID,68.8307,VALID,947.666,VALID,28.1116,VALID,208,VALID,0.77907,
2006-10-27, 18:44:00,VALID,918.889,VALID,0,VALID,68.1364,VALID,957.94,VALID,28.4774,VALID,278,VALID,0.745028,
2006-10-27, 18:45:00,VALID,918.866,VALID,0,VALID,67.8973,VALID,943.54,VALID,28.6355,VALID,254,VALID,1.02435,
2006-10-27, 18:46:00,VALID,918.842,VALID,0,VALID,70.1582,VALID,945.968,VALID,28.9496,VALID,278,VALID,1.37602,
2006-10-27, 18:47:00,VALID,918.826,VALID,0,VALID,65.8539,VALID,951.249,VALID,29.1044,VALID,166,VALID,0.68045,
2006-10-27, 18:48:00,VALID,918.82,VALID,0,VALID,63.4327,VALID,935.423,VALID,28.7778,VALID,171,VALID,0.826042,
2006-10-27, 18:49:00,VALID,918.781,VALID,0,VALID,64.6967,VALID,917.814,VALID,28.578,VALID,122,VALID,0.563889,
2006-10-27, 18:50:00,VALID,918.787,VALID,0,VALID,66.1565,VALID,931.534,VALID,28.6646,VALID,77,VALID,0.55069,
2006-10-27, 18:51:00,VALID,918.787,VALID,0,VALID,66.2519,VALID,974.598,VALID,28.8421,VALID,131,VALID,0.68418,
2006-10-27, 18:52:00,VALID,918.775,VALID,0,VALID,66.201,VALID,952.947,VALID,28.9553,VALID,350,VALID,0.406059,
2006-10-27, 18:53:00,VALID,918.764,VALID,0,VALID,66.2684,VALID,963.543,VALID,28.8734,VALID,257,VALID,0.862464,
2006-10-27, 18:54:00,VALID,918.749,VALID,0,VALID,66.95,VALID,952.37,VALID,29.0358,VALID,273,VALID,0.439596,
2006-10-27, 18:55:00,VALID,918.72,VALID,0,VALID,64.3419,VALID,820.446,VALID,29.1644,VALID,144,VALID,0.698117,
2006-10-27, 18:56:00,VALID,918.695,VALID,0,VALID,65.6618,VALID,759.654,VALID,28.9535,VALID,185,VALID,0.482986,
2006-10-27, 18:57:00,VALID,918.645,VALID,0,VALID,64.1486,VALID,839.108,VALID,28.6211,VALID,126,VALID,1.11532,
2006-10-27, 18:58:00,VALID,918.581,VALID,0,VALID,66.5265,VALID,695.756,VALID,28.4235,VALID,172,VALID,0.898615,
2006-10-27, 18:59:00,VALID,918.56,VALID,0,VALID,66.8635,VALID,604.959,VALID,28.4723,VALID,226,VALID,1.16741,
2006-10-27, 19:00:00,VALID,918.529,VALID,0,VALID,66.3218,VALID,709.833,VALID,28.2198,VALID,93,VALID,0.73056,
2006-10-27, 19:01:00,VALID,918.517,VALID,0,VALID,68.3615,VALID,926.406,VALID,28.181,VALID,178,VALID,0.563244,
2006-10-27, 19:02:00,VALID,918.492,VALID,0,VALID,68.2648,VALID,967.381,VALID,28.2711,VALID,121,VALID,0.694404,
2006-10-27, 19:03:00,VALID,918.483,VALID,0,VALID,69.8785,VALID,983.954,VALID,28.5187,VALID,263,VALID,1.04315,
2006-10-27, 19:04:00,VALID,918.478,VALID,0,VALID,70.1341,VALID,942.861,VALID,28.8712,VALID,285,VALID,0.661285,
2006-10-27, 19:05:00,VALID,918.463,VALID,0,VALID,64.7158,VALID,914.52,VALID,29.1227,VALID,296,VALID,0.891352,
2006-10-27, 19:06:00,VALID,918.434,VALID,0,VALID,63.9439,VALID,831.636,VALID,29.1737,VALID,132,VALID,0.64184,
2006-10-27, 19:07:00,VALID,918.401,VALID,0,VALID,63.7926,VALID,746.189,VALID,29.0803,VALID,134,VALID,0.332812,
2006-10-27, 19:08:00,VALID,918.374,VALID,0,VALID,66.3422,VALID,453.524,VALID,29.2509,VALID,255,VALID,1.32156,
2006-10-27, 19:09:00,VALID,918.372,VALID,0,VALID,67.4866,VALID,470.794,VALID,29.2315,VALID,268,VALID,0.841518,
2006-10-27, 19:10:00,VALID,918.356,VALID,0,VALID,66.7669,VALID,551.419,VALID,29.2509,VALID,285,VALID,0.635045,
2006-10-27, 19:11:00,VALID,918.347,VALID,0,VALID,63.2725,VALID,516.421,VALID,29.1924,VALID,322,VALID,0.547585,
2006-10-27, 19:12:00,VALID,918.308,VALID,0,VALID,63.9808,VALID,517.915,VALID,29.0537,VALID,107,VALID,0.931548,
2006-10-27, 19:13:00,VALID,918.282,VALID,0,VALID,66.1298,VALID,544.015,VALID,28.5298,VALID,163,VALID,0.472656,
2006-10-27, 19:14:00,VALID,918.263,VALID,0,VALID,66.9411,VALID,779.454,VALID,28.2586,VALID,142,VALID,0.895508,
2006-10-27, 19:15:00,VALID,918.227,VALID,0,VALID,66.0738,VALID,780.439,VALID,27.7956,VALID,133,VALID,1.25419,
2006-10-27, 19:16:00,VALID,918.184,VALID,0,VALID,67.5591,VALID,732.621,VALID,27.5151,VALID,156,VALID,0.713763,
2006-10-27, 19:17:00,VALID,918.153,VALID,0,VALID,70.1837,VALID,579.505,VALID,27.5248,VALID,252,VALID,1.07795,
2006-10-27, 19:18:00,VALID,918.094,VALID,0,VALID,70.3452,VALID,860.198,VALID,27.5962,VALID,276,VALID,1.89043,
2006-10-27, 19:19:00,VALID,918.071,VALID,0,VALID,72.0173,VALID,828.766,VALID,27.7776,VALID,263,VALID,1.17823,
2006-10-27, 19:20:00,VALID,918.034,VALID,0,VALID,69.4589,VALID,671.15,VALID,28.0761,VALID,261,VALID,0.864062,
2006-10-27, 19:21:00,VALID,918.009,VALID,0,VALID,69.366,VALID,470.997,VALID,28.14,VALID,265,VALID,1.33929,
2006-10-27, 19:22:00,VALID,917.966,VALID,0,VALID,69.7602,VALID,439.854,VALID,28.0653,VALID,270,VALID,0.647711,
2006-10-27, 19:23:00,VALID,917.958,VALID,0,VALID,71.6816,VALID,410.563,VALID,28.2044,VALID,271,VALID,0.839658,
2006-10-27, 19:24:00,VALID,917.939,VALID,0,VALID,69.1588,VALID,383.988,VALID,28.2629,VALID,226,VALID,0.477083,
2006-10-27, 19:25:00,VALID,917.901,VALID,0,VALID,68.7595,VALID,353.15,VALID,28.1109,VALID,110,VALID,0.619665,
2006-10-27, 19:26:00,VALID,917.896,VALID,0,VALID,69.1257,VALID,337.969,VALID,28.1081,VALID,30,VALID,0.474144,
2006-10-27, 19:27:00,VALID,917.89,VALID,0,VALID,69.3088,VALID,333.843,VALID,28.1339,VALID,232,VALID,0.708147,
2006-10-27, 19:28:00,VALID,917.868,VALID,0,VALID,68.748,VALID,334.336,VALID,27.9428,VALID,122,VALID,0.535764,
2006-10-27, 19:29:00,VALID,917.846,VALID,0,VALID,70.3655,VALID,339.141,VALID,27.8882,VALID,67,VALID,0.64008,
2006-10-27, 19:30:00,VALID,917.836,VALID,0,VALID,70.7012,VALID,335.202,VALID,27.7747,VALID,297,VALID,0.408381,
2006-10-27, 19:31:00,VALID,917.829,VALID,0,VALID,71.2442,VALID,324.198,VALID,27.7661,VALID,244,VALID,0.426389,
2006-10-27, 19:32:00,VALID,917.802,VALID,0,VALID,70.307,VALID,311.089,VALID,27.6813,VALID,134,VALID,0.686384,
2006-10-27, 19:33:00,VALID,917.783,VALID,0,VALID,71.7897,VALID,286.653,VALID,27.4557,VALID,267,VALID,1.09617,
2006-10-27, 19:34:00,VALID,917.774,VALID,0,VALID,71.8864,VALID,257.854,VALID,27.1088,VALID,94,VALID,1.29059,
2006-10-27, 19:35:00,VALID,917.748,VALID,0,VALID,74.3825,VALID,225.573,VALID,26.8862,VALID,88,VALID,0.480664,
2006-10-27, 19:36:00,VALID,917.744,VALID,0,VALID,74.0748,VALID,195.857,VALID,26.764,VALID,57,VALID,0.757813,
2006-10-27, 19:37:00,VALID,917.72,VALID,0,VALID,76.2619,VALID,177.535,VALID,26.6865,VALID,39,VALID,0.479611,
2006-10-27, 19:38:00,VALID,917.721,VALID,0,VALID,75.9237,VALID,172.984,VALID,26.6182,VALID,97,VALID,0.666602,
2006-10-27, 19:39:00,VALID,917.705,VALID,0,VALID,76.4272,VALID,183.308,VALID,26.5636,VALID,115,VALID,0.626202,
2006-10-27, 19:40:00,VALID,917.701,VALID,0,VALID,77.2996,VALID,198.778,VALID,26.3969,VALID,133,VALID,0.259943,
2006-10-27, 19:41:00,VALID,917.657,VALID,0,VALID,77.1088,VALID,209.815,VALID,26.2958,VALID,78,VALID,1.30265,
2006-10-27, 19:42:00,VALID,917.664,VALID,0,VALID,78.5686,VALID,218.611,VALID,26.1604,VALID,2,VALID,0.495164,
2006-10-27, 19:43:00,VALID,917.655,VALID,0,VALID,79.0404,VALID,230.871,VALID,26.1539,VALID,51,VALID,0.475038,
2006-10-27, 19:44:00,VALID,917.657,VALID,0,VALID,78.327,VALID,214.621,VALID,26.1158,VALID,123,VALID,0.735764,
2006-10-27, 19:45:00,VALID,917.634,VALID,0,VALID,79.5796,VALID,179.165,VALID,26.013,VALID,291,VALID,1.01935,
2006-10-27, 19:46:00,VALID,917.613,VALID,0,VALID,79.1892,VALID,150.229,VALID,26.0062,VALID,235,VALID,0.322049,
2006-10-27, 19:47:00,VALID,917.58,VALID,0,VALID,79.4842,VALID,133.758,VALID,26.0056,VALID,43,VALID,0.878551,
2006-10-27, 19:48:00,VALID,917.554,VALID,0,VALID,80.4773,VALID,128.392,VALID,25.9713,VALID,293,VALID,0.545099,
2006-10-27, 19:49:00,VALID,917.522,VALID,0,VALID,80.1988,VALID,122.568,VALID,25.8899,VALID,72,VALID,1.09208,
2006-10-27, 19:50:00,VALID,917.517,VALID,0,VALID,79.4003,VALID,113.228,VALID,25.6641,VALID,120,VALID,0.608613,
2006-10-27, 19:51:00,VALID,917.507,VALID,0,VALID,80.4086,VALID,105.74,VALID,25.5251,VALID,118,VALID,0.40952,
2006-10-27, 19:52:00,VALID,917.476,VALID,0,VALID,80.5778,VALID,103.125,VALID,25.5096,VALID,45,VALID,0.718178,
2006-10-27, 19:53:00,VALID,917.488,VALID,0,VALID,81.5963,VALID,104.177,VALID,25.4767,VALID,6,VALID,0.632431,
2006-10-27, 19:54:00,VALID,917.496,VALID,0,VALID,82.1965,VALID,107.964,VALID,25.4905,VALID,269,VALID,0.519531,
2006-10-27, 19:55:00,VALID,917.483,VALID,0,VALID,80.9758,VALID,108.796,VALID,25.5006,VALID,73,VALID,0.785326,
2006-10-27, 19:56:00,VALID,917.463,VALID,0,VALID,80.1874,VALID,107.285,VALID,25.4207,VALID,120,VALID,1.26651,
2006-10-27, 19:57:00,VALID,917.418,VALID,0,VALID,79.4842,VALID,109.526,VALID,25.045,VALID,137,VALID,2.38167,
2006-10-27, 19:58:00,VALID,917.382,VALID,0,VALID,80.8143,VALID,117.558,VALID,24.7219,VALID,130,VALID,1.55396,
2006-10-27, 19:59:00,VALID,917.33,VALID,0,VALID,81.8367,VALID,129.564,VALID,24.6269,VALID,116,VALID,1.7833,
2006-10-27, 20:00:00,VALID,917.303,VALID,0,VALID,81.8583,VALID,144.473,VALID,24.5035,VALID,134,VALID,2.3151,
2006-10-27, 20:01:00,VALID,917.255,VALID,0,VALID,82.6149,VALID,144.456,VALID,24.3617,VALID,138,VALID,2.21822,
2006-10-27, 20:02:00,VALID,917.244,VALID,0,VALID,83.1884,VALID,133.52,VALID,24.2903,VALID,142,VALID,1.71801,
2006-10-27, 20:03:00,VALID,917.226,VALID,0,VALID,83.4872,VALID,119.545,VALID,24.1993,VALID,144,VALID,2.33903,
2006-10-27, 20:04:00,VALID,917.243,VALID,0,VALID,82.3936,VALID,100.764,VALID,24.1018,VALID,115,VALID,2.2681,
2006-10-27, 20:05:00,VALID,917.249,VALID,0,VALID,81.8697,VALID,85.2098,VALID,23.9796,VALID,121,VALID,2.04635,
2006-10-27, 20:06:00,VALID,917.26,VALID,0,VALID,81.8468,VALID,72.5761,VALID,23.8825,VALID,120,VALID,1.72493,
2006-10-27, 20:07:00,VALID,917.248,VALID,0,VALID,82.7255,VALID,61.2329,VALID,23.8663,VALID,113,VALID,1.56399,
2006-10-27, 20:08:00,VALID,917.233,VALID,0,VALID,82.5666,VALID,57.0556,VALID,23.8681,VALID,114,VALID,1.16566,
2006-10-27, 20:09:00,VALID,917.217,VALID,0,VALID,82.0732,VALID,53.133,VALID,23.8508,VALID,112,VALID,1.37378,
2006-10-27, 20:10:00,VALID,917.18,VALID,0,VALID,82.8717,VALID,54.1858,VALID,23.8611,VALID,124,VALID,1.5123,
2006-10-27, 20:11:00,VALID,917.142,VALID,0,VALID,82.7815,VALID,56.7669,VALID,23.8164,VALID,121,VALID,2.01656,
2006-10-27, 20:12:00,VALID,917.099,VALID,0,VALID,82.6238,VALID,56.1896,VALID,23.7515,VALID,116,VALID,2.13467,
2006-10-27, 20:13:00,VALID,917.062,VALID,0,VALID,82.9404,VALID,53.6934,VALID,23.7231,VALID,123,VALID,1.77271,
2006-10-27, 20:14:00,VALID,917.051,VALID,0,VALID,83.3918,VALID,52.25,VALID,23.642,VALID,134,VALID,1.99085,
2006-10-27, 20:15:00,VALID,917.034,VALID,0,VALID,84.282,VALID,48.9218,VALID,23.5886,VALID,138,VALID,2.16279,
2006-10-27, 20:16:00,VALID,917.014,VALID,0,VALID,84.6304,VALID,43.3521,VALID,23.5598,VALID,118,VALID,1.38903,
2006-10-27, 20:17:00,VALID,917,VALID,0,VALID,84.6583,VALID,38.071,VALID,23.5592,VALID,115,VALID,1.56534,
2006-10-27, 20:18:00,VALID,916.964,VALID,0,VALID,84.9508,VALID,34.4371,VALID,23.5986,VALID,104,VALID,0.896569,
2006-10-27, 20:19:00,VALID,916.951,VALID,0,VALID,84.8211,VALID,32.773,VALID,23.598,VALID,101,VALID,1.54557,
2006-10-27, 20:20:00,VALID,916.916,VALID,0,VALID,84.6558,VALID,32.1787,VALID,23.5628,VALID,114,VALID,1.40346,
2006-10-27, 20:21:00,VALID,916.889,VALID,0,VALID,84.3417,VALID,31.3127,VALID,23.5311,VALID,132,VALID,1.18769,
2006-10-27, 20:22:00,VALID,916.899,VALID,0,VALID,84.4307,VALID,30.8712,VALID,23.5085,VALID,127,VALID,1.07617,
2006-10-27, 20:23:00,VALID,916.905,VALID,0,VALID,83.9526,VALID,32.5353,VALID,23.416,VALID,128,VALID,1.15278,
2006-10-27, 20:24:00,VALID,916.911,VALID,0,VALID,84.9317,VALID,37.2559,VALID,23.3379,VALID,103,VALID,1.23177,
2006-10-27, 20:25:00,VALID,916.905,VALID,0,VALID,85.7672,VALID,43.386,VALID,23.2742,VALID,137,VALID,1.04021,